[[{"header":{"parameterUnit":"m.s-1","parameterCategory":1,"la1":30.2991,"la2":30.254,"lo1":-89.0895,"lo2":-89.0444,"dy":0.0017,"dx":0.0017,"nx":28,"ny":28,"refTime":"2023-08-13T09:00:00:Z","depth":0,"parameterNumber":2,"parameterNumberName":"U-component_of_WINDS"},"data":[0,0,0,0,0,0,0,0,0,0,0,0,0,0,0,0,0,0,0,0,0,0,0,0,0,0,0,0,0,0,0,0,0,0,0,0,0,0,0,0,0,0,0,0,0,0,0,0,0,0,0,0,0,0,0,0,0,0,2.3656,2.3656,0,2.3642,2.3642,2.3642,2.3555,2.3553,2.3551,2.3549,2.3537,2.3538,2.354,0,0,0,0,0,0,0,0,0,0,0,0,0,2.3608,2.3609,2.3656,2.3656,2.3656,2.3642,2.3642,2.3642,2.3556,2.3553,2.355,2.3548,2.3536,2.3538,2.354,0,0,0,0,0,0,0,0,0,0,0,0,0,2.3615,2.3609,2.3656,2.3611,2.3607,2.3642,2.3642,2.3642,2.3556,2.3553,2.355,2.3547,2.3536,2.3538,2.354,2.3619,0,0,2.3548,2.3549,0,0,0,0,0,0,0,0,2.3615,2.3617,2.3618,2.3614,2.361,2.3597,2.362,2.3634,2.3557,2.3576,2.3549,2.3545,2.356,2.356,2.3564,2.3618,2.3618,2.3548,2.355,2.3551,2.3551,0,0,0,0,0,0,0,2.3614,2.3617,2.3651,2.3618,2.3613,2.3591,2.3589,2.3623,2.3586,2.3574,2.3567,2.3567,2.3557,2.3562,2.3563,2.3618,2.3548,2.355,2.3552,2.3553,2.3732,2.3735,0,0,0,0,0,0,2.362,2.3617,2.3651,2.365,2.3604,2.3595,2.3592,2.3604,2.3585,2.3579,2.3569,2.3563,2.3559,2.3561,2.3563,2.3651,2.3551,2.3553,2.3554,2.3729,2.3733,2.3736,0,0,0,0,0,0,2.3619,2.3624,2.3652,2.3632,2.3634,2.3599,2.3614,2.3606,2.3611,2.3582,2.3575,2.3582,2.3557,2.3559,2.3605,2.3649,2.3554,2.3556,2.3725,2.373,2.3735,2.3829,0,0,0,0,0,0,2.3618,2.3624,2.3654,2.3633,2.3635,2.3695,2.3616,2.3608,2.3615,2.3606,2.3591,2.3586,2.3555,2.3601,2.3607,2.3651,2.3558,2.3721,2.3727,2.3733,2.3822,2.3837,2.385,0,0,0,0,0,2.3617,2.3682,2.3656,2.366,2.3672,2.3697,2.3698,2.3661,2.3619,2.3648,2.3629,2.3586,2.3644,2.3607,2.3612,2.3658,2.3718,2.3725,2.3733,2.3816,2.3834,2.3849,0,0,0,0,0,0,2.371,2.3679,2.3649,2.371,2.3707,2.3683,2.3718,2.3682,2.3691,2.3682,2.3635,2.3633,2.3685,2.3676,2.3635,2.3731,2.3673,2.3682,2.3735,2.3752,2.3765,2.3765,2.356,0,0,0,0,0,2.3738,2.3761,2.3732,2.3789,2.3789,2.3754,2.3764,2.3735,2.373,2.3728,2.3712,2.371,2.3726,2.3739,2.3753,2.3821,2.3815,2.3854,2.3868,2.388,2.3887,2.392,2.3936,2.3761,2.3761,2.376,0,0,2.3796,2.3781,2.3799,2.3807,2.3801,2.3826,2.3754,2.3783,2.3801,2.3733,2.3774,2.3762,2.3756,2.3812,2.3836,2.3806,2.3935,2.3889,2.3898,2.39,2.3929,2.3946,2.396,2.3766,2.3765,2.3764,0,0,2.3912,2.3905,2.3949,2.3944,2.3935,2.3911,2.3922,2.3903,2.3892,2.3932,2.3881,2.3901,2.3933,2.3929,2.3931,2.4044,2.4004,2.405,2.4122,2.4154,2.4168,2.418,2.4218,2.4232,2.4059,2.4059,2.4059,0,2.3985,2.4019,2.3977,2.4009,2.4013,2.3951,2.3995,2.3993,2.399,2.3994,2.3961,2.3996,2.3988,2.4041,2.4068,2.4073,2.4083,2.4051,2.4169,2.4181,2.4191,2.4227,2.4242,2.4064,2.4064,2.4063,2.4063,0,2.4107,2.4132,2.4169,2.4165,2.4174,2.4213,2.4175,2.4189,2.4159,2.4138,2.4179,2.4167,2.4176,2.4187,2.4159,2.4235,2.4217,2.4177,2.4118,2.4214,2.4247,2.426,2.4072,2.407,2.4069,2.4067,0,0,2.4283,2.4254,2.4268,2.4264,2.4249,2.4267,2.4302,2.431,2.4322,2.4322,2.4348,2.4375,2.4337,2.434,2.4311,2.4339,2.4426,2.4295,2.4294,2.4318,2.4507,2.4535,2.4552,2.44,2.4402,2.4404,2.4507,0,2.4393,2.4449,2.4411,2.4474,2.4495,2.4436,2.4465,2.4459,2.4441,2.4456,2.4435,2.4454,2.4404,2.4405,2.443,2.441,2.4463,2.4402,2.4423,2.4425,2.4425,2.4569,2.46,2.4698,2.4519,2.4522,2.4523,0,2.4529,2.4532,2.4596,2.4574,2.4581,2.4609,2.4611,2.4627,2.4618,2.4602,2.4605,2.4567,2.4599,2.4541,2.4583,2.4543,2.4549,2.454,2.4543,2.4542,2.4479,2.4571,2.4728,2.4742,2.4543,2.4542,2.454,0,2.4647,2.4668,2.4708,2.4708,2.4684,2.4704,2.4695,2.4683,2.4689,2.4692,2.4695,2.4702,2.4705,2.4712,2.4677,2.4638,2.4722,2.4663,2.4709,2.471,2.4729,2.4728,2.4887,2.4736,2.4736,2.4736,2.4735,0,2.4773,2.4814,2.4761,2.4786,2.4829,2.4785,2.4829,2.4814,2.4803,2.4824,2.4774,2.4794,2.4748,2.4763,2.4736,2.4774,2.4776,2.4764,2.4756,2.4767,2.4768,2.477,2.4761,2.474,2.4739,2.4738,2.4737,0,2.4912,2.4879,2.4918,2.4891,2.4885,2.4919,2.4895,2.4917,2.4894,2.492,2.4924,2.4889,2.4904,2.487,2.4881,2.4862,2.4915,2.4898,2.4918,2.4912,2.4959,2.4955,2.5124,2.5143,2.4982,2.4983,2.4985,0,2.4994,2.5023,2.4999,2.5008,2.5001,2.5017,2.5023,2.498,2.4987,2.4978,2.5,2.5011,2.5017,2.5044,2.5019,2.5027,2.5008,2.5066,2.5009,2.5018,2.5006,2.5004,2.5005,2.5078,2.508,2.5082,2.5083,0,2.5141,2.5122,2.5131,2.5134,2.5141,2.5142,2.5139,2.515,2.5104,2.5115,2.5128,2.5133,2.5143,2.5153,2.5155,2.5145,2.5106,2.5101,2.5112,2.5123,2.5133,2.5126,2.4948,2.5097,2.5096,2.5095,2.5094,2.5094,2.5252,2.5275,2.526,2.5271,2.5264,2.5262,2.5279,2.5258,2.5269,2.5272,2.5246,2.5265,2.5254,2.5251,2.5246,2.526,2.5233,2.525,2.5253,2.5257,2.5264,2.5132,2.526,2.526,2.5259,2.5259,2.5259,0,2.5394,2.5381,2.5392,2.5388,2.5397,2.5358,2.5352,2.5362,2.5379,2.5371,2.5377,2.5392,2.5402,2.5377,2.5383,2.5399,2.5381,2.5402,2.5399,2.5397,2.5289,2.5278,2.5416,2.5416,2.5416,2.5416,2.5416,2.5416,2.5469,2.5504,2.5484,2.5514,2.5501,2.5518,2.5517,2.5515,2.5508,2.5526,2.5533,2.5517,2.5502,2.5506,2.5512,2.5505,2.5508,2.5535,2.5521,2.542,2.5405,2.539,2.538,2.5537,2.5537,2.5628,2.5629,2.5629]},{"header":{"parameterUnit":"m.s-1","parameterCategory":1,"la1":30.2991,"la2":30.254,"lo1":-89.0895,"lo2":-89.0444,"dy":0.0017,"dx":0.0017,"nx":28,"ny":28,"refTime":"2023-08-13T09:00:00:Z","depth":0,"parameterNumber":3,"parameterNumberName":"V-component_of_WINDS"},"data":[0,0,0,0,0,0,0,0,0,0,0,0,0,0,0,0,0,0,0,0,0,0,0,0,0,0,0,0,0,0,0,0,0,0,0,0,0,0,0,0,0,0,0,0,0,0,0,0,0,0,0,0,0,0,0,0,0,0,4.6853,4.6854,0,4.6973,4.6975,4.6976,4.695,4.6948,4.6946,4.6944,4.7059,4.7064,4.7069,0,0,0,0,0,0,0,0,0,0,0,0,0,4.6593,4.6598,4.6853,4.6854,4.6856,4.6973,4.6975,4.6976,4.6951,4.6948,4.6945,4.6943,4.7057,4.7063,4.7069,0,0,0,0,0,0,0,0,0,0,0,0,0,4.6709,4.6599,4.6853,4.6858,4.6859,4.6973,4.6975,4.6977,4.6951,4.6948,4.6945,4.6941,4.7055,4.7062,4.707,4.7184,0,0,4.7094,4.7097,0,0,0,0,0,0,0,0,4.6702,4.6718,4.6855,4.6857,4.6859,4.6944,4.6925,4.7046,4.6952,4.6916,4.6944,4.694,4.7023,4.7033,4.7062,4.7189,4.7194,4.7094,4.7099,4.7102,4.7104,0,0,0,0,0,0,0,4.6694,4.6713,4.69,4.6857,4.686,4.6851,4.6864,4.6948,4.6986,4.6919,4.6917,4.6932,4.7023,4.7055,4.7065,4.7196,4.7094,4.7101,4.7106,4.7109,4.7421,4.7424,0,0,0,0,0,0,4.6685,4.6706,4.6896,4.6904,4.6771,4.6858,4.6873,4.692,4.6985,4.6992,4.6935,4.6931,4.7043,4.7056,4.7069,4.7205,4.7102,4.7109,4.7114,4.7417,4.7421,4.7425,0,0,0,0,0,0,4.668,4.6703,4.6892,4.6805,4.6828,4.6866,4.6919,4.6924,4.6956,4.6998,4.7003,4.6961,4.7041,4.7058,4.7156,4.7209,4.7113,4.712,4.7413,4.7418,4.7423,4.748,0,0,0,0,0,0,4.6673,4.6701,4.6746,4.6806,4.6833,4.6979,4.6923,4.6929,4.697,4.6966,4.7024,4.703,4.704,4.7144,4.7163,4.7218,4.7126,4.7408,4.7415,4.7422,4.7474,4.7487,4.7498,0,0,0,0,0,4.6663,4.6756,4.6749,4.6772,4.6891,4.6982,4.6997,4.7009,4.6975,4.7019,4.7046,4.7028,4.7201,4.7155,4.7176,4.7233,4.7405,4.7413,4.7421,4.7468,4.7484,4.7498,0,0,0,0,0,0,4.6698,4.6764,4.6757,4.6872,4.6922,4.6978,4.7035,4.7026,4.7085,4.7078,4.7088,4.7101,4.7201,4.7227,4.7175,4.7346,4.7297,4.731,4.7325,4.7341,4.7353,4.7344,4.7132,0,0,0,0,0,4.672,4.6792,4.6844,4.694,4.6966,4.6996,4.7036,4.7042,4.7093,4.7113,4.7147,4.7195,4.726,4.7302,4.7364,4.7478,4.7489,4.7527,4.754,4.755,4.756,4.762,4.7638,4.7453,4.7453,4.7452,0,0,4.6765,4.6809,4.6853,4.6948,4.6988,4.7059,4.7014,4.7091,4.7143,4.7124,4.7219,4.7245,4.7299,4.7405,4.7454,4.743,4.7614,4.756,4.7568,4.7573,4.7631,4.7648,4.7664,4.7458,4.7457,4.7456,0,0,4.6882,4.6924,4.7008,4.705,4.7111,4.7131,4.7151,4.7209,4.7226,4.7322,4.7309,4.7369,4.7481,4.752,4.7555,4.7687,4.7672,4.7707,4.777,4.7829,4.7844,4.7857,4.7902,4.7919,4.7717,4.7718,4.7718,0,4.6928,4.7038,4.7052,4.7131,4.7172,4.7161,4.7245,4.7284,4.7361,4.7388,4.7362,4.7502,4.7538,4.7652,4.7684,4.7713,4.7735,4.77,4.7841,4.7854,4.7866,4.791,4.7927,4.7721,4.7721,4.7721,4.772,0,4.7091,4.7167,4.7227,4.7306,4.7354,4.7435,4.7459,4.7506,4.7507,4.7528,4.7625,4.7668,4.7738,4.7765,4.7766,4.788,4.7863,4.7839,4.7789,4.7888,4.7928,4.7945,4.7727,4.7725,4.7724,4.7723,0,0,4.7232,4.7319,4.734,4.7375,4.7443,4.75,4.758,4.7651,4.769,4.7744,4.7809,4.7904,4.7882,4.7921,4.7926,4.7978,4.8078,4.7947,4.7949,4.7969,4.8204,4.8221,4.824,4.807,4.8073,4.8076,4.8199,0,4.7354,4.7498,4.7514,4.7641,4.771,4.77,4.7769,4.7816,4.7839,4.7898,4.7921,4.7989,4.7955,4.7979,4.803,4.8056,4.8125,4.8047,4.8128,4.813,4.8113,4.8262,4.828,4.8395,4.8215,4.8218,4.822,0,4.7516,4.7577,4.7712,4.777,4.7799,4.7861,4.7927,4.7986,4.8038,4.805,4.8095,4.8093,4.8172,4.8121,4.8229,4.8175,4.8209,4.8227,4.8231,4.8238,4.818,4.8271,4.8432,4.8448,4.8246,4.8244,4.8242,0,4.7604,4.772,4.7815,4.7846,4.7915,4.7959,4.7989,4.8039,4.8081,4.8138,4.8165,4.8229,4.8264,4.8313,4.8327,4.8289,4.8434,4.8385,4.8444,4.8444,4.8474,4.8472,4.8641,4.8499,4.8498,4.8498,4.8498,0,4.7737,4.782,4.7856,4.7914,4.8005,4.8021,4.811,4.8138,4.8182,4.8244,4.8239,4.8296,4.8313,4.8373,4.8384,4.8471,4.8487,4.8497,4.8499,4.8497,4.8496,4.8518,4.851,4.8503,4.8502,4.8501,4.85,0,4.785,4.7878,4.7981,4.804,4.8056,4.8121,4.8169,4.8224,4.8246,4.8324,4.8343,4.8377,4.8447,4.8467,4.855,4.8558,4.8659,4.8654,4.8642,4.8642,4.87,4.8693,4.8888,4.8913,4.8756,4.8757,4.8759,0,4.7933,4.7997,4.8063,4.8105,4.8138,4.8207,4.825,4.8268,4.8312,4.8377,4.8424,4.8494,4.855,4.8662,4.8692,4.8755,4.8751,4.8815,4.876,4.8756,4.875,4.8745,4.8751,4.8824,4.8826,4.8827,4.8828,0,4.8076,4.8087,4.8152,4.8221,4.8274,4.8328,4.838,4.8414,4.8439,4.8489,4.8563,4.8607,4.8693,4.8761,4.8826,4.8854,4.8845,4.8846,4.8862,4.886,4.885,4.8855,4.8669,4.8841,4.8839,4.8838,4.8838,4.8837,4.8176,4.8231,4.8287,4.8358,4.84,4.845,4.8504,4.8534,4.8596,4.867,4.8676,4.8754,4.8804,4.889,4.8922,4.8981,4.8962,4.8987,4.8993,4.8998,4.9003,4.8842,4.8993,4.8993,4.8993,4.8992,4.8992,0,4.8317,4.8353,4.8419,4.8494,4.855,4.854,4.8597,4.8643,4.8713,4.8762,4.8819,4.8902,4.8968,4.9004,4.907,4.9111,4.9108,4.9127,4.9123,4.913,4.9017,4.8995,4.9128,4.9128,4.9128,4.9128,4.9128,4.9128,4.8398,4.8492,4.8509,4.8623,4.8657,4.8736,4.877,4.8814,4.8853,4.8947,4.9004,4.9028,4.907,4.9139,4.9199,4.9208,4.9231,4.9252,4.9258,4.9152,4.9138,4.9124,4.9104,4.9258,4.9258,4.9366,4.9367,4.9368]}]]